RH
52 52 54 59 63 61 53 48 40 40 38 34 32 26 20 23 36 61 82 55 76 98 84 67 75 88 65 55 53 56 49 44 46 52 51 47 44 47 54 54 60 60 55
50 56 58 62 69 62 52 45 38 36 34 32 28 24 18 17 21 38 60 47 63 98 100 96 85 97 91 85 68 61 57 53 56 57 60 58 57 59 60 61 65 69 71
61 72 73 67 74 60 54 47 44 39 33 30 29 25 17 15 16 18 22 32 48 84 91 99 100 100 99 88 74 67 67 64 62 63 72 72 68 62 67 72 75 78 80
83 100 85 72 62 55 56 49 48 40 33 30 29 26 18 17 17 19 20 19 25 59 96 91 95 94 91 92 96 95 85 85 90 91 92 95 98 100 100 100 100 100 94
98 93 70 64 59 55 53 49 44 38 31 31 29 24 21 17 18 18 17 19 27 43 75 91 97 94 92 90 81 78 75 88 98 96 84 79 83 72 74 87 96 94 94
100 100 86 67 62 56 51 52 44 32 31 32 30 27 25 23 22 22 20 20 23 24 31 40 43 47 47 50 42 46 67 80 76 84 96 100 100 100 91 81 94 98 99
100 94 75 62 63 59 55 51 44 29 30 32 32 30 31 31 28 28 28 27 28 30 30 31 56 62 74 81 81 67 62 88 88 84 82 80 99 100 100 95 83 92 84
85 71 67 63 58 58 56 49 42 33 31 32 34 33 32 34 35 34 34 35 34 34 35 34 30 31 41 50 89 99 100 97 93 92 98 97 92 94 70 59 57 56 50
69 67 61 58 57 52 47 43 38 34 33 31 34 36 36 37 37 37 39 40 40 38 39 39 38 40 41 39 42 87 90 79 76 69 61 68 74 70 60 59 58 52 49
68 60 58 59 54 48 47 44 40 39 37 33 30 34 38 41 42 42 42 42 42 43 43 43 43 43 43 43 44 53 55 54 49 53 58 64 65 68 73 74 79 83 85
64 60 60 59 55 51 46 43 40 39 38 38 38 38 39 42 45 45 47 48 47 47 49 51 50 48 46 44 47 50 49 47 47 49 52 55 56 55 62 68 70 72 74
72 77 80 78 72 67 62 54 47 41 39 41 43 43 42 47 50 51 51 51 53 56 54 54 57 57 59 57 56 53 49 50 54 55 56 55 54 54 54 55 58 61 63
81 75 81 76 67 64 56 52 52 49 46 46 42 39 39 44 49 55 54 56 60 60 54 51 55 58 63 68 67 67 64 66 65 63 61 62 66 64 65 60 62 62 66
82 71 59 53 53 52 50 53 54 47 39 35 36 40 44 46 51 48 48 48 48 51 54 56 55 51 58 63 59 56 55 59 59 60 62 59 62 64 64 65 62 56 56
71 68 69 67 54 45 40 36 33 35 33 33 34 38 38 36 34 35 39 40 40 42 48 46 42 36 37 39 42 46 49 48 48 46 50 57 55 56 59 63 58 58 62
56 52 55 46 36 29 25 23 18 17 16 16 16 17 17 19 31 33 32 34 38 38 37 39 40 38 34 32 32 33 33 33 37 37 35 35 39 47 50 50 56 63 64
48 41 37 31 26 22 18 16 17 16 16 17 16 17 17 19 22 23 20 22 22 22 24 25 27 33 37 34 31 28 25 25 27 31 32 32 30 29 32 37 41 59 69
34 27 27 25 21 18 18 19 17 18 19 18 19 19 18 18 18 18 18 18 19 17 15 14 14 13 14 17 20 22 25 27 28 31 36 40 42 40 40 39 38 40 44
25 25 23 20 20 20 22 21 20 22 20 19 20 21 20 18 18 18 19 19 18 17 18 17 16 15 14 13 14 12 12 11 12 12 12 13 16 22 27 34 42 42 43
24 24 23 24 23 24 23 24 23 25 24 19 19 18 17 16 16 17 18 18 18 18 18 18 17 17 17 17 16 14 13 13 13 13 12 11 13 12 11 11 13 14 17
28 26 27 26 25 27 27 25 24 23 22 19 17 17 16 16 16 16 16 18 19 18 16 17 17 17 18 20 21 22 22 21 22 21 19 18 16 15 15 15 15 15 15
29 32 32 29 30 31 26 25 23 23 22 19 18 18 18 18 18 18 20 20 20 21 23 26 29 27 24 22 19 17 16 15 15 15 15 16 17 17 17 18 19 19 19
30 33 36 29 31 30 24 24 26 22 20 18 17 18 19 21 23 24 25 28 31 31 27 23 21 20 19 19 21 22 20 22 22 23 21 20 20 18 16 17 17 17 18
34 32 32 29 24 26 28 25 22 21 23 23 23 24 26 27 31 33 32 29 26 24 27 30 32 32 29 27 24 26 24 23 23 20 19 20 20 21 21 20 21 22 23
43 33 26 29 36 33 28 27 27 28 26 30 36 37 35 32 29 28 32 36 36 36 35 36 37 37 37 36 33 30 31 30 30 31 26 20 23 23 25 24 23 23 22
35 44 42 40 32 33 34 36 35 39 41 36 32 30 31 36 37 37 35 35 37 36 37 34 34 31 30 28 28 31 29 30 35 38 44 44 31 26 26 24 25 27 27
Wind_Speed
24 23 24 23 25 25 25 27 29 30 30 29 29 32 32 28 26 23 25 20 22 23 24 24 23 22 20 19 18 18 18 18 18 18 19 20 20 20 20 19 19 19 21
25 25 25 24 24 27 29 30 33 32 32 29 29 31 33 28 26 23 25 24 23 23 24 26 27 24 24 23 23 23 23 23 24 24 25 24 25 26 26 26 25 25 25
28 26 27 26 27 28 32 35 35 35 34 30 29 31 30 27 26 26 25 25 24 28 27 26 26 27 27 27 28 28 28 29 31 30 32 32 32 31 30 31 31 30 30
29 28 27 31 33 35 36 37 37 37 34 29 30 30 27 27 26 24 23 22 24 27 29 29 29 31 31 32 31 30 32 34 34 35 36 36 35 35 34 33 33 35 36
32 30 33 36 37 37 37 38 38 37 29 28 30 28 25 24 23 22 21 20 21 24 28 31 33 34 36 37 38 40 38 35 35 36 37 38 38 39 40 39 38 38 39
35 35 37 40 41 37 38 38 37 32 27 29 30 28 26 24 23 22 21 20 18 20 25 31 35 37 39 41 42 42 41 41 41 40 40 40 44 45 43 43 43 43 44
37 42 38 39 40 39 38 38 35 31 29 31 32 30 28 26 25 25 23 23 23 24 23 25 26 28 31 32 34 36 38 40 42 41 43 42 41 45 48 49 50 50 49
43 40 38 40 42 40 38 38 36 35 31 33 34 34 33 30 29 29 28 27 27 28 28 27 27 27 29 30 31 32 33 36 36 37 40 42 42 44 43 40 41 43 43
40 40 41 42 41 39 38 38 38 37 37 37 37 38 38 36 35 33 33 35 35 35 34 34 34 33 33 32 32 32 35 36 35 37 39 41 41 41 39 39 41 42 42
40 41 41 41 39 39 40 41 41 42 42 43 44 42 42 41 42 42 40 39 39 41 42 42 41 40 40 39 38 38 39 41 39 40 40 41 43 43 43 44 46 45 45
41 42 42 42 42 44 45 46 47 49 49 49 48 48 47 47 47 48 47 47 47 47 46 47 48 48 48 49 47 46 46 46 46 46 46 46 48 48 49 49 49 49 48
45 46 49 49 48 49 50 51 53 53 53 53 53 54 54 54 54 54 53 54 54 53 54 53 54 54 55 56 55 54 55 55 55 55 55 54 54 55 54 54 54 54 54
49 52 54 54 55 56 57 58 58 57 56 57 59 60 59 58 60 60 61 62 62 63 63 62 62 62 63 63 62 63 64 64 64 64 64 65 65 64 63 62 62 61 61
53 56 60 60 59 59 59 59 58 59 62 62 62 62 62 64 65 66 67 68 68 69 70 70 71 70 70 71 72 71 71 71 71 72 73 72 72 72 72 71 70 69 67
59 59 59 60 59 57 58 59 59 61 63 63 63 65 66 66 67 68 69 71 72 72 74 76 77 76 76 75 76 77 78 79 78 78 78 78 78 77 76 76 75 71 69
57 55 57 58 57 57 57 58 59 60 62 62 63 63 65 66 68 68 71 72 74 75 75 77 77 78 80 80 81 81 82 82 83 84 85 85 84 84 83 82 81 76 73
56 55 57 57 56 55 57 54 55 58 58 60 62 63 64 65 66 68 70 71 71 73 75 78 79 81 83 85 86 86 86 85 85 86 86 87 89 89 90 89 88 83 79
55 57 55 55 57 57 55 56 54 58 62 64 63 64 65 66 67 68 70 72 75 77 79 81 82 82 82 83 85 86 88 89 89 89 90 92 93 94 93 92 90 90 92
56 57 57 58 57 58 60 62 63 66 67 65 64 65 67 69 71 73 74 76 78 79 80 82 82 83 83 83 83 84 85 86 87 86 87 88 89 91 92 95 96 96 95
58 59 60 60 61 62 65 67 71 72 73 70 69 70 72 73 73 75 76 78 81 81 81 80 81 80 81 83 83 83 85 86 88 89 89 90 91 91 92 93 93 95 95
63 63 62 64 64 67 71 75 74 76 73 73 71 71 73 74 75 76 77 77 76 76 77 76 75 75 73 75 74 74 75 75 77 78 80 82 83 84 86 88 92 95 96
63 63 66 69 72 74 77 81 81 76 75 73 71 72 71 71 73 74 74 71 68 67 66 66 67 68 69 70 71 74 74 73 76 76 78 80 82 83 82 81 81 83 86
66 69 73 76 79 84 81 80 81 79 75 72 70 68 69 67 64 63 62 62 62 63 64 64 63 63 63 60 60 61 59 61 61 62 64 65 68 70 69 70 73 77 81
72 75 78 79 79 82 85 79 74 72 70 67 65 62 59 58 59 60 61 61 60 57 54 52 51 52 53 54 53 53 54 52 54 57 55 58 60 61 63 64 65 66 66
78 80 82 84 86 85 74 68 65 62 59 55 54 55 57 57 56 53 48 46 45 45 45 46 47 48 49 49 51 49 47 48 48 51 57 53 52 53 56 57 59 61 63
81 86 88 86 67 60 56 54 54 54 56 57 55 51 47 43 42 42 43 42 42 42 43 44 45 46 45 46 44 43 43 41 38 39 41 49 52 48 50 51 53 55 57
Wind_Direction
273 275 277 283 295 304 306 308 309 309 314 310 307 311 310 303 291 280 276 270 260 261 265 269 272 266 267 261 256 256 256 255 257 265 271 271 271 274 278 278 281 283 286
271 272 275 283 294 299 305 307 309 310 310 308 307 313 312 304 297 289 275 276 254 253 266 270 271 267 264 265 267 263 256 253 254 262 265 268 269 268 272 274 275 278 281
271 275 277 283 290 295 300 301 305 309 308 305 307 311 309 306 304 297 290 278 256 249 249 255 265 268 267 267 267 264 263 261 258 259 264 270 269 269 270 269 270 271 274
272 276 282 287 290 294 298 298 301 304 303 300 303 306 304 305 305 302 299 288 274 251 251 258 264 267 266 268 267 266 265 265 265 267 270 274 276 276 275 274 269 269 268
270 272 282 287 290 293 294 296 301 302 297 299 304 303 300 302 303 304 303 297 289 272 258 258 264 266 266 268 271 272 266 261 267 270 269 270 272 275 275 274 272 271 271
259 272 278 284 285 289 291 293 297 298 293 295 303 304 300 299 300 303 302 302 297 291 278 271 271 272 272 273 274 273 270 268 266 265 266 270 273 273 276 274 272 272 275
264 273 278 282 284 286 286 288 291 293 291 293 297 302 300 297 293 295 297 295 294 294 289 284 281 280 280 283 279 274 271 269 270 270 271 269 268 272 273 273 270 270 273
265 271 276 280 283 284 285 287 288 291 291 289 291 295 295 295 294 290 288 286 286 287 285 282 279 276 276 279 281 279 274 272 273 272 270 270 269 269 268 269 269 270 272
270 274 279 282 283 281 284 288 289 291 291 291 289 289 291 292 290 290 288 285 285 284 282 282 281 280 276 271 272 271 272 273 275 275 274 272 270 268 269 269 270 271 273
271 275 277 279 280 281 283 284 286 287 288 289 290 286 284 284 286 287 285 284 284 284 284 282 281 280 278 277 272 268 270 271 270 270 271 272 272 271 271 273 274 275 275
273 273 274 276 277 278 281 283 286 287 286 285 285 285 283 281 280 281 281 281 282 283 283 282 282 282 282 281 278 275 273 273 272 270 270 270 270 271 269 270 270 271 271
271 272 272 272 274 278 280 281 283 285 285 285 284 283 282 280 279 278 277 277 277 277 279 280 280 279 278 278 277 277 276 276 275 274 273 272 272 272 272 270 269 269 269
269 269 271 272 274 276 280 281 281 281 281 280 280 281 279 277 275 275 275 275 276 276 277 277 276 276 277 276 276 275 276 275 275 274 274 274 274 273 272 271 272 273 273
268 268 270 278 281 284 286 286 285 284 285 284 282 278 277 275 274 274 275 275 276 276 276 276 276 276 274 274 274 273 272 271 270 270 269 270 270 270 271 272 272 271 269
273 276 276 281 285 285 285 285 285 285 283 283 282 279 280 279 277 275 273 273 274 274 274 275 276 276 275 274 272 271 271 271 270 269 269 270 268 267 267 268 269 268 270
274 277 278 282 283 287 288 287 288 287 286 284 283 281 278 278 277 277 277 276 274 273 274 274 273 273 272 271 270 269 269 269 268 269 269 268 267 266 266 266 267 267 266
274 276 277 282 284 285 288 288 292 292 292 291 288 284 282 282 280 280 278 278 277 275 274 272 271 270 270 272 273 273 272 271 270 269 270 270 269 269 268 268 267 266 266
273 278 278 280 282 284 287 292 293 294 293 290 286 284 283 282 281 280 278 277 276 276 275 275 275 275 275 275 275 276 276 275 274 273 272 271 271 271 272 271 271 269 267
274 274 277 281 283 284 288 293 294 296 296 292 287 284 282 280 280 280 280 280 281 281 280 280 280 280 280 279 279 279 278 278 277 276 273 271 270 269 270 270 270 269 268
273 275 279 282 284 285 291 294 294 294 297 294 289 285 283 282 281 281 282 283 283 283 283 283 282 282 281 282 282 282 281 281 279 278 276 273 271 269 268 266 267 268 267
275 278 281 283 286 289 291 292 292 294 295 294 291 287 286 285 286 286 286 286 286 285 285 286 286 285 283 282 282 280 279 278 275 275 274 273 272 272 270 268 267 266 265
274 280 284 288 288 289 291 293 294 296 296 292 290 289 289 288 287 287 287 286 285 285 286 287 285 284 284 284 283 282 282 278 276 274 272 272 272 271 269 270 269 268 267
281 284 287 289 289 292 294 294 293 292 291 290 289 288 288 287 286 286 287 289 290 289 288 288 288 288 287 286 286 285 283 281 279 278 277 276 275 275 275 273 271 269 267
287 288 288 291 291 293 295 293 291 292 292 292 291 290 290 290 290 290 290 289 289 290 290 290 290 290 290 290 290 290 289 287 285 281 277 276 275 277 276 275 274 272 271
286 290 292 294 295 297 295 294 294 293 293 293 293 293 292 291 290 290 290 289 289 289 290 291 291 291 291 291 291 292 291 291 289 288 288 279 278 276 275 275 275 275 274
291 294 295 295 295 294 295 295 295 295 294 294 293 293 292 290 288 287 288 289 291 292 293 292 292 291 291 291 290 290 288 288 288 286 290 295 290 284 282 281 278 275 275